Location: Red Deer
(52.2681°N, 113.8112°W)
Time: 19:09:06
(UTC-07:00)

N. Korean satellite - Pass Details

Date: 30 November 2022
Orbit: 407 x 442 km, 97.3° (Epoch: 05 February)

Event Time Altitude Azimuth Distance (km) Brightness Sun altitude
Rises 05:13:25 0° 24° (NNE) 2,532 10.5 -27.7°
Reaches altitude 10° 05:15:48 10° 39° (NE) 1,647 9.7 -27.3°
Maximum altitude 05:18:40 23° 93° (E) 1,048 8.9 -26.9°
Drops below altitude 10° 05:21:27 10° 147° (SSE) 1,600 9.6 -26.4°
Sets 05:23:51 0° 163° (SSE) 2,486 10.4 -26.1°
